Weather History for KCOU - December, 2012

Change the Weather History Date:

Saturday, December 29, 2012

  Actual Average Record
Temperature  
Mean Temperature 26 °F 30 °F  
Max Temperature 30 °F 39 °F 67 °F (1984)
Min Temperature 21 °F 21 °F -8 °F (1917)
Degree Days  
Heating Degree Days 39 35  
Month to date heating degree days 732 939  
Since 1 July heating degree days 1699 1924  
Cooling Degree Days 0 0  
Month to date cooling degree days 0 0  
Year to date cooling degree days 1896 1249  
Moisture  
Dew Point 18 °F    
Average Humidity 73    
Maximum Humidity 88    
Minimum Humidity 58    
Precipitation  
Precipitation 0.01 in 0.06 in 2.04 in (1984)
Month to date precipitation 1.32 2.30  
Year to date precipitation 30.46 42.48  
Snow  
Snow 0.00 in 0.20 in 6.90 in (1954)
Month to date snowfall 1.2 4.1  
Since 1 July snowfall 1.2 5.0  
Snow Depth 0.00 in    
Sea Level Pressure  
Sea Level Pressure 30.21 in    
Wind  
Wind Speed 11 mph (WNW)    
Max Wind Speed 20 mph    
Max Gust Speed 24 mph    
Visibility 8 miles    
Events Snow    
T = Trace of Precipitation, MM = Missing Value Source: NWS Daily Summary

Daily Weather History Graph

Daily Weather History Graph

Search for Another Location

Airport or City:

Trip Planner

Search our weather history database for the weather conditions in past years. The results will help you decide how hot, cold, wet, or windy it might be!

Date:

Astronomy

Dec. 29, 2012 Rise Set
Actual Time 7:26 AM CST 4:55 PM CST
Civil Twilight 6:56 AM CST 5:25 PM CST
Nautical Twilight 6:23 AM CST 5:59 PM CST
Astronomical Twilight 5:51 AM CST 6:31 PM CST
Moon 6:28 PM CST 8:01 AM CST
Length of Visible Light 10h 28m
Length of Day
9h 28m
Full, 98% of the Moon is Illuminated
Dec 29
Full
Jan 4
Last Quarter
Jan 11
New
Jan 18
First Quarter
Jan 26
Full

Hourly Weather History & Observations

Time (CST) Temp. Windchill Dew Point Humidity Pressure Visibility Wind Dir Wind Speed Gust Speed Precip Events Conditions
12:54 AM 28.0 °F 18.6 °F 21.9 °F 78% 30.00 in 6.0 mi WNW 10.4 mph - N/A   Haze
1:54 AM 27.0 °F 15.6 °F 21.9 °F 81% 30.02 in 5.0 mi West 13.8 mph - 0.00 in Snow Light Snow
2:54 AM 26.1 °F 15.0 °F 21.9 °F 84% 30.05 in 3.0 mi WNW 12.7 mph - 0.00 in Snow Light Snow
3:38 AM 24.8 °F 14.0 °F 21.2 °F 86% 30.02 in 2.5 mi WNW 11.5 mph - 0.01 in Snow Light Snow
3:54 AM 25.0 °F 13.6 °F 21.9 °F 88% 30.05 in 2.5 mi WNW 12.7 mph - 0.01 in Snow Light Snow
4:54 AM 25.0 °F 13.1 °F 21.0 °F 85% 30.07 in 3.0 mi WNW 13.8 mph 19.6 mph 0.00 in Snow Light Snow
5:54 AM 25.0 °F 13.6 °F 21.0 °F 85% 30.10 in 6.0 mi NW 12.7 mph - 0.00 in   Overcast
6:54 AM 25.0 °F 12.2 °F 19.0 °F 78% 30.13 in 7.0 mi NW 16.1 mph - N/A   Overcast
7:06 AM 24.8 °F 12.9 °F 19.4 °F 80% 30.11 in 7.0 mi WNW 13.8 mph 21.9 mph N/A   Overcast
7:54 AM 24.1 °F 10.1 °F 18.0 °F 77% 30.17 in 10.0 mi NW 18.4 mph - N/A   Overcast
8:54 AM 23.0 °F 8.7 °F 17.1 °F 78% 30.21 in 8.0 mi WNW 18.4 mph 21.9 mph N/A   Overcast
9:54 AM 24.1 °F 12.5 °F 17.1 °F 75% 30.24 in 7.0 mi WNW 12.7 mph 21.9 mph N/A   Overcast
10:54 AM 24.1 °F 12.0 °F 17.1 °F 75% 30.26 in 9.0 mi West 13.8 mph - N/A   Overcast
11:54 AM 24.1 °F 13.1 °F 17.1 °F 75% 30.25 in 9.0 mi WNW 11.5 mph - N/A   Overcast
12:54 PM 25.0 °F 14.2 °F 17.1 °F 72% 30.24 in 10.0 mi WNW 11.5 mph - N/A   Mostly Cloudy
1:45 PM 24.8 °F 13.4 °F 17.6 °F 74% 30.21 in 10.0 mi WNW 12.7 mph - N/A   Scattered Clouds
1:54 PM 25.0 °F 14.2 °F 17.1 °F 72% 30.25 in 10.0 mi WNW 11.5 mph - N/A   Partly Cloudy
2:54 PM 28.0 °F 18.1 °F 17.1 °F 63% 30.25 in 10.0 mi West 11.5 mph - N/A   Clear
3:54 PM 28.9 °F 18.2 °F 16.0 °F 58% 30.27 in 10.0 mi West 13.8 mph - N/A   Clear
4:54 PM 28.0 °F 21.7 °F 16.0 °F 61% 30.28 in 10.0 mi West 5.8 mph - N/A   Clear
5:54 PM 26.1 °F 20.5 °F 16.0 °F 66% 30.30 in 10.0 mi West 4.6 mph - N/A   Clear
6:54 PM 25.0 °F 19.3 °F 15.1 °F 66% 30.32 in 10.0 mi WSW 4.6 mph - N/A   Clear
7:54 PM 24.1 °F 16.0 °F 15.1 °F 69% 30.33 in 10.0 mi WSW 6.9 mph - N/A   Clear
8:54 PM 23.0 °F 15.8 °F 15.1 °F 72% 30.34 in 10.0 mi WSW 5.8 mph - N/A   Clear
9:54 PM 25.0 °F 18.1 °F 15.1 °F 66% 30.34 in 10.0 mi WSW 5.8 mph - N/A   Clear
10:54 PM 26.1 °F 20.5 °F 15.1 °F 63% 30.33 in 10.0 mi WSW 4.6 mph - N/A   Clear
11:54 PM 21.0 °F 12.4 °F 14.0 °F 74% 30.34 in 10.0 mi SW 6.9 mph - N/A   Clear